Regional Weather Roundup
Issued by NWS

Home | Current Version | Previous Version | Graphics & Text | Print | Product List | Glossary On
Versions: 1 2 3 4 5 6 7 8 9 10 11 12 13 14 15 16 17 18 19 20 21 22 23 24 25 26 27 28 29 30 31 32 33 34 35 36 37 38 39 40 41 42 43 44 45 46 47 48 49
000
ASUS45 KCYS 271010
RWRWY

WYOMING REGIONAL WEATHER ROUNDUP
NATIONAL WEATHER SERVICE CHEYENNE WY
300 AM MST FRI FEB 27 2015

NOTE:  "FAIR" INDICATES FEW OR NO CLOUDS BELOW 12,000 FEET
WITH NO SIGNIFICANT WEATHER AND/OR OBSTRUCTIONS TO VISIBILITY.

WYZ001-271100-
YELLOWSTONE NATIONAL PARK

CITY           SKY/WX    TMP DP  RH WIND       PRES   REMARKS
LK YELLOWSTONE   N/A    -12 -18  74 CALM      29.82F
W YELLOWSTONE  NOT AVBL

$$
WYZ002>013-054>058-071-098>099-271100-
NORTHERN WYOMING

CITY           SKY/WX    TMP DP  RH WIND       PRES   REMARKS
JACKSON        MOCLDY     9   5  85 N5        29.86F WCI   0
CODY           FAIR       3   0  85 S6        29.94F WCI  -8
GREYBULL       MOCLDY    14   3  61 E8        30.05F WCI   3
WORLAND        FAIR       8   0  69 SE7       30.03F WCI  -3
SHERIDAN       FAIR      -9 -16  71 CALM      30.05F
BUFFALO        FAIR       2  -3  80 S20       29.97F WCI -19
GILLETTE       FAIR       1  -5  75 S15       30.08F WCI -18
HULETT         FAIR      -4  -8  84 CALM      30.12F
NEWCASTLE      FAIR       1  -8  66 MISG      30.17F

$$
WYZ014>020-022>026-101>103-271100-
CENTRAL WYOMING

CITY           SKY/WX    TMP DP  RH WIND       PRES   REMARKS
BIG PINEY      LGT SNOW  10   4  76 S6        29.88F WCI   0
PINEDALE       LGT SNOW   9   5  85 CALM      29.88F
DUBOIS         FAIR       0  -6  78 NW6       29.82F WCI -12
LANDER         CLOUDY     2  -4  76 CALM      29.96F
RIVERTON       FAIR      -2  -6  83 NW9       29.97F WCI -18
CASPER         FAIR      -2  -6  83 N3        29.99F
DOUGLAS        FAIR       3  -1  83 SE16      30.05F WCI -16

$$
WYZ021-027>030-104>119-271100-
SOUTHERN WYOMING

CITY           SKY/WX    TMP DP  RH WIND       PRES   REMARKS
EVANSTON       CLOUDY    14  11  87 E9        29.84S WCI   2
FORT BRIDGER   CLOUDY    11   9  93 NE5       29.90S WCI   3
ROCK SPRINGS   FAIR       3  -1  83 SE7       29.89F WCI  -9
DIXON          FAIR       8   4  83 CALM      29.90S
RAWLINS        FAIR       2  -3  80 NE8       29.88F WCI -12
SARATOGA       FAIR      -2  -6  84 W5        29.86F WCI -12
LARAMIE        FAIR       0  -5  79 SE18      29.84F WCI -21
CHEYENNE       CLOUDY     3  -2  79 SE10      29.98F HAZE    WCI -12
TORRINGTON     LGT SNOW   6   1  80 SE13      30.17F WCI -10
PINE BLUFFS    FLURRIES   3   0  85 MISG      30.09F

$$


USA.gov is the U.S. government's official web portal to all federal, state and local government web resources and services.